GW5785 Weather Reports


time (UTC)temp
F
wind
direction
speed
knots
gust
knots
rain 1hr
in
rain 24hr
in
rain mn
in
humidity
%
barometer
mb
20260507142248 43 105 0.0 0.9 0.00 0.00 0.00 64 1015.5
20260507141744 43 284 1.7 2.6 0.00 0.00 0.00 62 1015.6
20260507141242 43 241 0.9 0.9 0.00 0.00 0.00 64 1015.5
20260507140737 43 205 1.7 1.7 0.00 0.00 0.00 64 1015.4
20260507140235 43 229 1.7 3.5 0.00 0.00 0.00 63 1015.3
20260507135732 46 219 3.5 3.5 0.00 0.00 0.00 60 1015.3
20260507135230 44 202 0.0 2.6 0.00 0.00 0.00 60 1015.2
20260507134725 46 263 1.7 2.6 0.00 0.00 0.00 61 1015.2
20260507134222 46 309 0.9 2.6 0.00 0.00 0.00 59 1015.2
20260507133718 45 134 1.7 2.6 0.00 0.00 0.00 61 1015.3
20260507133215 44 52 1.7 5.2 0.00 0.00 0.00 63 1015.1
20260507132713 43 128 4.3 6.1 0.00 0.00 0.00 64 1015.3
20260507132209 44 135 3.5 3.5 0.00 0.00 0.00 63 1014.8
20260507131706 43 121 1.7 3.5 0.00 0.00 0.00 64 1015.2
20260507131203 42 349 3.5 7.0 0.00 0.00 0.00 66 1015.3
20260507130700 42 88 2.6 6.1 0.00 0.00 0.00 66 1015.0
20260507130157 42 133 7.8 9.6 0.00 0.00 0.00 67 1015.2
20260507125656 42 119 7.0 8.7 0.00 0.00 0.00 65 1015.2
20260507125153 43 43 3.5 7.0 0.00 0.00 0.00 64 1015.1
20260507124649 43 354 4.3 7.0 0.00 0.00 0.00 63 1015.1
20260507124147 42 178 3.5 11.3 0.00 0.00 0.00 65 1014.8
20260507123645 42 207 3.5 8.7 0.00 0.00 0.00 64 1014.9
20260507123142 43 73 1.7 3.5 0.00 0.00 0.00 63 1014.9
20260507122637 43 328 2.6 3.5 0.00 0.00 0.00 66 1014.6
20260507122133 43 144 3.5 7.0 0.00 0.00 0.00 65 1014.6
20260507121629 43 211 5.2 7.8 0.00 0.00 0.00 65 1014.8
20260507121125 44 210 1.7 6.1 0.00 0.00 0.00 67 1014.8
20260507120622 43 257 2.6 5.2 0.00 0.00 0.00 66 1014.4
20260507120118 43 277 3.5 7.0 0.00 0.00 0.00 67 1014.4
20260507115615 43 285 4.3 6.1 0.00 0.00 0.00 65 1014.4
20260507115111 44 292 2.6 3.5 0.00 0.00 0.00 66 1014.4
20260507114607 44 292 2.6 5.2 0.00 0.00 0.00 65 1014.4
20260507114104 44 239 2.6 3.5 0.00 0.00 0.00 65 1014.5
20260507113601 44 268 6.1 8.7 0.00 0.00 0.00 65 1014.1
20260507113058 44 7 1.7 8.7 0.00 0.00 0.00 60 1014.3
20260507112556 44 179 5.2 8.7 0.00 0.00 0.00 58 1014.3
20260507112053 44 61 3.5 7.8 0.00 0.00 0.00 58 1014.2
20260507111549 44 240 1.7 7.8 0.00 0.00 0.00 59 1013.9
20260507111046 44 249 1.7 6.1 0.00 0.00 0.00 65 1013.8
20260507110543 44 195 1.7 3.5 0.00 0.00 0.00 63 1013.8
20260507110039 43 278 0.0 5.2 0.00 0.00 0.00 67 1014.0
20260507105536 44 261 2.6 2.6 0.00 0.00 0.00 67 1013.8
20260507105032 43 289 1.7 2.6 0.00 0.00 0.00 71 1013.8
20260507104530 43 298 2.6 3.5 0.00 0.00 0.00 73 1013.8
20260507104026 42 269 2.6 3.5 0.00 0.00 0.00 72 1013.7
20260507103522 42 309 3.5 5.2 0.00 0.00 0.00 72 1013.7
20260507103019 42 300 5.2 7.8 0.00 0.00 0.00 70 1013.6
20260507102516 42 291 5.2 8.7 0.00 0.00 0.00 69 1013.5
20260507102012 42 274 1.7 5.2 0.00 0.00 0.00 72 1013.7
20260507101507 43 283 2.6 5.2 0.00 0.00 0.00 70 1013.7
20260507101004 43 257 2.6 5.2 0.00 0.00 0.00 71 1013.6
20260507100501 43 264 1.7 7.8 0.00 0.00 0.00 71 1013.6
20260507095959 43 262 1.7 2.6 0.00 0.00 0.00 72 1013.6
20260507095457 43 263 1.7 2.6 0.00 0.00 0.00 73 1013.6
20260507094953 41 284 3.5 6.1 0.00 0.00 0.00 75 1013.3
20260507094449 42 292 3.5 5.2 0.00 0.00 0.00 74 1013.3
20260507093947 42 308 1.7 6.1 0.00 0.00 0.00 73 1013.3
20260507093444 43 247 1.7 7.0 0.00 0.00 0.00 70 1013.4
20260507092943 42 233 1.7 2.6 0.00 0.00 0.00 66 1013.3
20260507092438 42 249 2.6 6.1 0.00 0.00 0.00 68 1013.2
20260507091935 44 192 3.5 5.2 0.00 0.00 0.00 59 1013.2
20260507091432 44 281 4.3 8.7 0.00 0.00 0.00 58 1013.2
20260507090928 44 199 3.5 6.1 0.00 0.00 0.00 58 1013.0
20260507090424 44 80 2.6 11.3 0.00 0.00 0.00 57 1013.2
20260507085921 44 191 2.6 5.2 0.00 0.00 0.00 55 1012.9
20260507085418 44 217 0.9 1.7 0.00 0.00 0.00 58 1013.0
20260507084915 44 144 0.0 1.7 0.00 0.00 0.00 55 1012.9
20260507084412 44 239 4.3 6.1 0.00 0.00 0.00 55 1012.9
20260507083909 43 269 3.5 5.2 0.00 0.00 0.00 59 1012.8
20260507083405 44 303 1.7 3.5 0.00 0.00 0.00 58 1012.9
20260507082901 43 247 0.9 1.7 0.00 0.00 0.00 62 1012.8
20260507082357 42 265 2.6 5.2 0.00 0.00 0.00 66 1012.8
20260507081855 43 258 2.6 3.5 0.00 0.00 0.00 62 1012.8
20260507081350 43 261 0.9 2.6 0.00 0.00 0.00 63 1012.6
20260507080848 42 268 0.9 2.6 0.00 0.00 0.00 64 1012.7
20260507080343 44 231 0.9 2.6 0.00 0.00 0.00 59 1012.6
20260507075839 44 268 3.5 7.0 0.00 0.00 0.00 57 1012.8
20260507075335 43 241 2.6 3.5 0.00 0.00 0.00 57 1012.6
20260507074832 43 224 4.3 7.8 0.00 0.00 0.00 59 1012.7
20260507074329 43 225 2.6 7.0 0.00 0.00 0.00 58 1012.5
20260507073826 44 207 3.5 6.1 0.00 0.00 0.00 59 1012.5
20260507073323 44 45 1.7 5.2 0.00 0.00 0.00 57 1012.4
20260507072820 43 156 3.5 6.1 0.00 0.00 0.00 57 1012.4
20260507072318 44 138 0.0 3.5 0.00 0.00 0.00 59 1012.3
20260507071815 44 258 3.5 9.6 0.00 0.00 0.00 57 1012.4
20260507071312 45 271 4.3 7.0 0.00 0.00 0.00 56 1012.5
20260507070808 45 223 2.6 3.5 0.00 0.00 0.00 57 1012.1
20260507070306 44 255 1.7 2.6 0.00 0.00 0.00 57 1012.2
20260507065802 44 352 0.0 2.6 0.00 0.00 0.00 59 1012.4
20260507065259 42 195 0.0 3.5 0.00 0.00 0.00 60 1012.2
20260507064756 42 130 1.7 3.5 0.00 0.00 0.00 59 1012.1
20260507064255 42 122 0.9 3.5 0.00 0.00 0.00 61 1012.0
20260507063752 43 83 2.6 3.5 0.00 0.00 0.00 61 1012.0
20260507063249 43 249 1.7 5.2 0.00 0.00 0.00 63 1011.9
20260507062746 42 264 0.9 5.2 0.00 0.00 0.00 65 1012.0
20260507062243 41 204 1.7 1.7 0.00 0.00 0.00 67 1012.1
20260507061741 41 245 0.9 2.6 0.00 0.00 0.00 68 1012.0
20260507061238 41 190 0.9 2.6 0.00 0.00 0.00 68 1012.1
20260507060736 40 112 1.7 3.5 0.00 0.00 0.00 68 1012.0
20260507060233 41 123 3.5 3.5 0.00 0.00 0.00 68 1012.1
20260507055729 40 101 0.0 6.1 0.00 0.00 0.00 69 1011.9
20260507055224 40 125 0.0 0.9 0.00 0.00 0.00 73 1011.9
20260507054720 40 139 1.7 2.6 0.00 0.00 0.00 70 1012.1
20260507054218 40 236 1.7 5.2 0.00 0.00 0.00 71 1011.9
20260507053715 40 280 0.9 1.7 0.00 0.00 0.00 73 1011.8
20260507053213 39 64 0.9 2.6 0.00 0.00 0.00 78 1011.7
20260507052712 39 79 0.0 0.0 0.00 0.00 0.00 80 1011.7
20260507052207 39 301 0.0 0.0 0.00 0.00 0.00 83 1011.8
20260507051706 38 301 0.0 0.0 0.00 0.00 0.00 82 1011.8
20260507051202 38 301 0.0 1.7 0.00 0.00 0.00 83 1011.7
20260507050659 39 0 0.0 0.0 0.00 0.00 0.00 84 1011.5
20260507050155 38 0 0.0 0.0 0.00 0.00 0.00 83 1011.6
20260507045652 38 0 0.0 0.9 0.00 0.00 0.00 85 1011.6
20260507045149 38 0 0.0 0.0 0.00 0.00 0.00 86 1011.5
20260507044646 37 0 0.0 0.0 0.00 0.00 0.00 87 1011.7
20260507044143 37 0 0.0 0.9 0.00 0.00 0.00 88 1011.5
20260507043638 37 25 0.9 1.7 0.00 0.00 0.00 88 1011.5
20260507043136 37 129 0.0 0.0 0.00 0.00 0.00 88 1011.5
20260507042632 37 129 0.0 0.0 0.00 0.00 0.00 88 1011.5
20260507042127 37 129 0.0 0.0 0.00 0.00 0.00 89 1011.7
20260507041624 36 130 0.0 0.9 0.00 0.00 0.00 89 1011.9
20260507041121 36 130 0.0 0.0 0.00 0.00 0.00 90 1011.6
20260507040618 36 130 0.0 0.0 0.00 0.00 0.00 90 1011.6
20260507040114 36 208 0.0 0.9 0.00 0.00 0.00 90 1011.6
20260507035610 36 309 0.0 0.9 0.00 0.00 0.00 91 1011.4
20260507035106 36 233 1.7 1.7 0.00 0.00 0.00 91 1011.6
20260507034603 36 78 0.9 2.6 0.00 0.00 0.00 91 1011.3
20260507034102 35 81 0.0 0.0 0.00 0.00 0.00 91 1011.5
20260507033600 35 84 0.0 0.0 0.00 0.00 0.00 91 1011.5
20260507033056 35 109 0.0 0.0 0.00 0.00 0.00 91 1011.3
20260507032554 35 109 0.0 0.0 0.00 0.00 0.00 91 1011.4
20260507032049 35 109 0.0 0.0 0.00 0.00 0.00 91 1011.4
20260507031546 35 109 0.0 0.0 0.00 0.00 0.00 91 1011.2
20260507031043 35 83 0.0 0.0 0.00 0.00 0.00 91 1011.4
20260507030540 35 71 0.0 0.0 0.00 0.00 0.00 91 1011.4
20260507030038 35 350 0.0 0.0 0.00 0.00 0.00 91 1011.4
20260507025535 35 58 0.0 0.0 0.00 0.00 0.00 91 1011.1
20260507025032 35 89 0.0 0.0 0.00 0.00 0.00 91 1011.3
20260507024530 35 3 0.0 0.9 0.00 0.00 0.00 91 1011.1
20260507024026 35 330 1.7 1.7 0.00 0.00 0.00 91 1011.1
20260507023522 35 303 0.0 0.0 0.00 0.00 0.00 91 1011.2
20260507023020 35 342 2.6 2.6 0.00 0.00 0.00 91 1011.3
20260507022516 35 2 0.9 1.7 0.00 0.00 0.00 91 1011.0
20260507022012 35 32 1.7 2.6 0.00 0.00 0.00 91 1011.2
20260507021508 34 347 0.0 0.0 0.00 0.00 0.00 91 1011.1
20260507021004 34 26 0.0 0.0 0.00 0.00 0.00 91 1011.2
20260507020501 34 33 0.9 0.9 0.00 0.00 0.00 91 1011.1
20260507015958 34 67 0.9 1.7 0.00 0.00 0.00 90 1011.1
20260507015457 34 59 0.0 1.7 0.00 0.00 0.00 90 1011.3
20260507014954 34 335 0.9 1.7 0.00 0.00 0.00 90 1011.1
20260507014450 34 357 1.7 2.6 0.00 0.00 0.00 89 1011.1
20260507013946 34 0 2.6 2.6 0.00 0.00 0.00 88 1011.2
20260507013443 34 358 3.5 3.5 0.00 0.00 0.00 87 1011.1
20260507012941 35 353 2.6 2.6 0.00 0.00 0.00 85 1011.0
20260507012437 35 31 0.0 0.0 0.00 0.00 0.00 84 1011.3
20260507011934 35 73 0.0 1.7 0.00 0.00 0.00 82 1011.0
20260507011431 35 58 0.9 1.7 0.00 0.00 0.00 82 1011.0
20260507010931 34 41 0.0 0.0 0.00 0.00 0.00 82 1010.9
20260507010427 34 60 0.0 0.9 0.00 0.00 0.00 82 1010.5
20260507005924 34 346 0.0 1.7 0.00 0.00 0.00 82 1010.9
20260507005421 35 58 0.9 1.7 0.00 0.00 0.00 81 1010.6
20260507004917 34 21 1.7 1.7 0.00 0.00 0.00 82 1010.6
20260507004414 34 332 0.0 0.0 0.00 0.00 0.00 83 1010.7
20260507003912 34 62 0.0 0.0 0.00 0.00 0.00 82 1010.7
20260507003407 34 34 0.9 2.6 0.00 0.00 0.00 82 1010.4
20260507002902 35 38 0.0 0.9 0.00 0.00 0.00 80 1010.5
20260507002358 34 29 0.9 1.7 0.00 0.00 0.00 81 1010.4
20260507001856 34 44 1.7 2.6 0.00 0.00 0.00 80 1010.4
20260507001352 34 22 2.6 2.6 0.00 0.00 0.00 80 1010.4
20260507000849 34 353 1.7 2.6 0.00 0.00 0.00 81 1010.3
20260507000344 34 2 0.9 1.7 0.00 0.00 0.00 81 1010.5
20260506235841 34 2 0.9 1.7 0.00 0.00 0.00 82 1010.3
20260506235338 34 346 1.7 2.6 0.00 0.00 0.00 82 1010.2
20260506234834 34 359 0.0 0.0 0.00 0.00 0.00 82 1010.3
20260506234332 34 0 0.0 0.0 0.00 0.00 0.00 82 1010.4
20260506233830 34 356 0.0 0.0 0.00 0.00 0.00 82 1010.2
20260506233325 34 48 0.0 0.9 0.00 0.00 0.00 81 1010.2
20260506232822 35 337 0.0 1.7 0.00 0.00 0.00 80 1010.2
20260506232318 34 357 1.7 2.6 0.00 0.00 0.00 81 1010.2
20260506231815 34 12 1.7 2.6 0.00 0.00 0.00 80 1010.2
20260506231313 34 2 0.9 1.7 0.00 0.00 0.00 81 1010.1
20260506230810 34 348 1.7 1.7 0.00 0.00 0.00 81 1010.0
20260506230306 34 343 1.7 1.7 0.00 0.00 0.00 81 1010.0
20260506225802 34 8 0.0 0.9 0.00 0.00 0.00 81 1010.0
20260506225300 34 334 1.7 1.7 0.00 0.00 0.00 81 1009.8
20260506224756 34 349 2.6 3.5 0.00 0.00 0.00 81 1009.9
20260506224254 34 6 2.6 2.6 0.00 0.00 0.00 82 1010.0
20260506223750 33 5 2.6 3.5 0.00 0.00 0.00 83 1009.9
20260506223245 33 23 2.6 2.6 0.00 0.00 0.00 83 1010.1
20260506222742 33 7 2.6 2.6 0.00 0.00 0.00 83 1010.1
20260506222238 33 354 1.7 2.6 0.00 0.00 0.00 82 1010.2
20260506221736 34 34 0.0 0.0 0.00 0.00 0.00 82 1010.1
20260506221234 33 44 0.0 0.9 0.00 0.00 0.00 83 1010.1
20260506220731 33 53 1.7 1.7 0.00 0.00 0.00 84 1010.1
20260506220232 33 39 1.7 1.7 0.00 0.00 0.00 84 1009.9
20260506215729 33 13 1.7 1.7 0.00 0.03 0.03 84 1010.0
20260506215224 33 344 1.7 1.7 0.00 0.03 0.03 84 1009.9
20260506214721 33 350 0.0 0.0 0.00 0.03 0.03 83 1009.7
20260506214218 33 340 1.7 2.6 0.00 0.03 0.03 83 1009.7
20260506213716 33 350 1.7 2.6 0.00 0.03 0.03 82 1009.7
20260506213213 34 26 3.5 3.5 0.00 0.03 0.03 81 1009.6
20260506212710 34 349 2.6 3.5 0.00 0.03 0.03 82 1009.9
20260506212206 34 18 0.9 2.6 0.00 0.03 0.03 81 1009.8
20260506211701 34 35 0.9 1.7 0.00 0.03 0.03 81 1009.8
20260506211158 34 70 0.9 1.7 0.00 0.03 0.03 82 1009.8
20260506210655 34 16 0.9 1.7 0.00 0.03 0.03 82 1009.7
20260506210152 34 348 1.7 1.7 0.00 0.03 0.03 82 1009.8
20260506205650 34 33 1.7 1.7 0.00 0.03 0.03 82 1009.8
20260506205149 34 1 1.7 3.5 0.00 0.03 0.03 82 1009.9
20260506204648 34 10 1.7 3.5 0.00 0.03 0.03 81 1009.8
20260506204144 35 3 1.7 2.6 0.00 0.03 0.03 80 1009.9
20260506203643 35 346 0.9 1.7 0.00 0.03 0.03 81 1009.8
20260506203139 35 25 1.7 2.6 0.00 0.03 0.03 82 1009.5
20260506202637 35 60 1.7 1.7 0.00 0.03 0.03 81 1009.6
20260506202133 35 62 1.7 2.6 0.00 0.03 0.03 78 1009.6
20260506201630 37 347 0.9 1.7 0.00 0.03 0.03 76 1009.8
20260506201127 37 337 1.7 2.6 0.00 0.03 0.03 76 1009.7
20260506200623 37 342 1.7 1.7 0.00 0.03 0.03 75 1009.6
20260506200120 38 348 0.9 2.6 0.00 0.03 0.03 74 1009.5
20260506195617 38 56 0.0 0.0 0.00 0.03 0.03 73 1009.5
20260506195113 39 111 0.0 2.6 0.00 0.03 0.03 72 1009.5
20260506194610 39 129 2.6 3.5 0.00 0.03 0.03 74 1009.4
20260506194107 39 118 3.5 5.2 0.00 0.03 0.03 73 1009.3
20260506193605 39 98 1.7 2.6 0.00 0.03 0.03 74 1009.4
20260506193102 39 98 1.7 2.6 0.00 0.03 0.03 75 1009.5
20260506192558 39 133 1.7 5.2 0.00 0.03 0.03 74 1009.4
20260506192054 40 130 4.3 6.1 0.00 0.03 0.03 74 1009.2
20260506191551 40 120 3.5 6.1 0.00 0.03 0.03 74 1009.4
20260506191047 40 79 3.5 7.0 0.00 0.03 0.03 74 1009.3
20260506190544 40 145 5.2 6.1 0.00 0.03 0.03 73 1009.1
20260506190041 40 121 3.5 6.1 0.00 0.03 0.03 73 1009.2
20260506185539 40 126 3.5 7.0 0.00 0.03 0.03 73 1009.3
20260506185035 40 268 2.6 3.5 0.00 0.03 0.03 72 1009.1
20260506184533 40 146 1.7 3.5 0.00 0.03 0.03 71 1009.1
20260506184030 40 170 0.9 1.7 0.00 0.03 0.03 72 1009.0
20260506183525 41 94 0.9 2.6 0.00 0.03 0.03 72 1009.0
20260506183022 41 256 1.7 5.2 0.00 0.03 0.03 72 1009.0
20260506182520 41 160 1.7 3.5 0.00 0.03 0.03 72 1009.1
20260506182017 41 166 4.3 5.2 0.00 0.03 0.03 71 1009.0
20260506181515 42 137 0.9 3.5 0.00 0.03 0.03 67 1009.1
20260506181011 42 195 3.5 7.0 0.00 0.03 0.03 67 1009.0
20260506180508 42 159 1.7 6.1 0.00 0.03 0.03 67 1009.1
20260506180005 42 235 0.9 5.2 0.00 0.03 0.03 69 1008.9
20260506175500 42 263 2.6 5.2 0.00 0.03 0.03 68 1009.0
20260506174957 42 272 5.2 7.0 0.00 0.03 0.03 65 1009.0
20260506174456 42 237 1.7 5.2 0.00 0.03 0.03 67 1008.9
20260506173952 42 262 2.6 7.0 0.00 0.03 0.03 67 1008.9
20260506173449 42 150 3.5 7.0 0.00 0.03 0.03 67 1008.9
20260506172946 42 112 2.6 7.0 0.00 0.03 0.03 68 1008.9
20260506172444 42 357 2.6 6.1 0.00 0.03 0.03 68 1008.8
20260506171940 42 54 1.7 6.1 0.00 0.03 0.03 69 1008.8
20260506171437 42 243 1.7 7.0 0.00 0.03 0.03 68 1008.8
20260506170935 43 215 3.5 7.0 0.00 0.03 0.03 69 1008.8
20260506170431 44 314 3.5 7.0 0.00 0.03 0.03 66 1008.8
20260506165930 44 228 4.3 7.8 0.00 0.03 0.03 64 1008.7
20260506165428 44 116 0.9 5.2 0.00 0.03 0.03 63 1008.5
20260506164924 43 107 1.7 7.0 0.00 0.03 0.03 63 1008.5
20260506164421 43 100 3.5 7.0 0.00 0.03 0.03 63 1008.5
20260506163919 44 188 3.5 7.0 0.00 0.03 0.03 62 1008.5
20260506163414 43 200 2.6 7.0 0.00 0.03 0.03 63 1008.5
20260506162909 43 141 2.6 7.0 0.00 0.03 0.03 63 1008.6
20260506162407 43 108 3.5 6.1 0.00 0.03 0.03 63 1008.7
20260506161904 44 233 0.9 5.2 0.00 0.03 0.03 63 1008.6
20260506161402 44 215 2.6 5.2 0.00 0.03 0.03 61 1008.5
20260506160859 45 285 3.5 7.0 0.00 0.03 0.03 58 1008.6
20260506160355 46 214 3.5 7.8 0.00 0.03 0.03 60 1008.5
20260506155854 46 270 1.7 3.5 0.00 0.03 0.03 59 1008.3
20260506155351 46 198 1.7 3.5 0.00 0.03 0.03 58 1008.5
20260506153508 46 300 1.7 2.6 0.00 0.03 0.03 59 1008.3
20260506153005 44 255 2.6 2.6 0.00 0.03 0.03 61 1008.3
20260506152502 44 253 0.9 2.6 0.00 0.03 0.03 59 1008.4
20260506152000 45 288 1.7 6.1 0.00 0.03 0.03 59 1008.1
20260506151457 46 325 1.7 3.5 0.00 0.03 0.03 55 1008.1
20260506150954 46 280 0.9 3.5 0.00 0.03 0.03 58 1008.3
20260506150450 46 297 1.7 3.5 0.00 0.03 0.03 58 1008.3
20260506145948 46 323 1.7 3.5 0.00 0.03 0.03 56 1008.2
20260506145444 46 257 1.7 3.5 0.00 0.03 0.03 54 1007.9
20260506144942 45 286 3.5 5.2 0.00 0.03 0.03 57 1008.2
20260506144438 45 295 3.5 5.2 0.00 0.03 0.03 54 1008.1
20260506143936 44 308 1.7 2.6 0.00 0.03 0.03 58 1008.2
20260506143433 44 298 1.7 3.5 0.00 0.03 0.03 60 1008.2
20260506142931 46 277 1.7 2.6 0.00 0.03 0.03 56 1008.1
20260506142429 46 257 1.7 2.6 0.00 0.03 0.03 57 1008.2